TimeEDT,TemperatureF,Dew PointF,Humidity,Sea Level PressureIn,VisibilityMPH,Wind Direction,Wind SpeedMPH,Gust SpeedMPH,PrecipitationIn,Events,Conditions,WindDirDegrees,DateUTC
12:15 AM,37.2,33.8,87,30.11,10.0,Calm,Calm,-,N/A,,Scattered Clouds,0,2012-10-07 04:15:00
12:35 AM,37.2,33.6,87,30.11,10.0,Calm,Calm,-,N/A,,Mostly Cloudy,0,2012-10-07 04:35:00
12:55 AM,37.6,33.8,86,30.11,10.0,Calm,Calm,-,N/A,,Overcast,0,2012-10-07 04:55:00
1:15 AM,38.1,34.5,87,30.11,10.0,Calm,Calm,-,N/A,,Overcast,0,2012-10-07 05:15:00
1:35 AM,37.6,34.3,88,30.10,10.0,Calm,Calm,-,N/A,,Overcast,0,2012-10-07 05:35:00
1:55 AM,37.4,34.5,89,30.11,10.0,Calm,Calm,-,N/A,,Overcast,0,2012-10-07 05:55:00
2:15 AM,38.5,35.1,87,30.11,10.0,Calm,Calm,-,N/A,,Overcast,0,2012-10-07 06:15:00
2:35 AM,38.5,34.9,87,30.11,10.0,Calm,Calm,-,N/A,,Overcast,0,2012-10-07 06:35:00
2:55 AM,38.5,35.4,89,30.11,10.0,Calm,Calm,-,N/A,,Overcast,0,2012-10-07 06:55:00
3:15 AM,39.0,35.6,88,30.11,10.0,Calm,Calm,-,N/A,,Overcast,0,2012-10-07 07:15:00
3:35 AM,37.9,35.2,90,30.10,10.0,Calm,Calm,-,N/A,,Overcast,0,2012-10-07 07:35:00
3:55 AM,38.5,35.4,89,30.10,10.0,Calm,Calm,-,N/A,,Overcast,0,2012-10-07 07:55:00
4:15 AM,38.5,35.6,89,30.10,10.0,Calm,Calm,-,N/A,,Overcast,0,2012-10-07 08:15:00
4:35 AM,37.6,34.7,89,30.09,10.0,Calm,Calm,-,N/A,,Mostly Cloudy,0,2012-10-07 08:35:00
4:55 AM,37.6,34.9,90,30.10,10.0,Calm,Calm,-,N/A,,Mostly Cloudy,0,2012-10-07 08:55:00
5:15 AM,37.4,34.9,91,30.10,10.0,Calm,Calm,-,N/A,,Overcast,0,2012-10-07 09:15:00
5:35 AM,37.6,34.7,89,30.09,10.0,Calm,Calm,-,N/A,,Overcast,0,2012-10-07 09:35:00
5:55 AM,37.0,34.7,91,30.09,10.0,Calm,Calm,-,N/A,,Overcast,0,2012-10-07 09:55:00
6:15 AM,37.6,34.7,89,30.09,10.0,WNW,3.5,-,N/A,,Overcast,290,2012-10-07 10:15:00
6:35 AM,37.2,34.7,91,30.09,10.0,Calm,Calm,-,N/A,,Overcast,0,2012-10-07 10:35:00
6:55 AM,37.4,34.7,90,30.09,10.0,Calm,Calm,-,N/A,,Overcast,0,2012-10-07 10:55:00
7:15 AM,36.9,34.7,92,30.09,10.0,WSW,3.5,-,N/A,,Overcast,250,2012-10-07 11:15:00
7:35 AM,37.4,34.7,90,30.10,10.0,WNW,3.5,-,N/A,,Overcast,290,2012-10-07 11:35:00
7:55 AM,37.6,34.9,90,30.10,10.0,Calm,Calm,-,N/A,,Overcast,0,2012-10-07 11:55:00
8:15 AM,37.9,34.9,89,30.10,10.0,Calm,Calm,-,N/A,,Overcast,0,2012-10-07 12:15:00
8:35 AM,37.8,34.9,89,30.10,10.0,Calm,Calm,-,N/A,,Overcast,0,2012-10-07 12:35:00
8:55 AM,38.5,35.4,89,30.11,10.0,Calm,Calm,-,N/A,,Overcast,0,2012-10-07 12:55:00
9:15 AM,38.5,35.2,88,30.11,10.0,West,3.5,-,N/A,,Overcast,280,2012-10-07 13:15:00
9:35 AM,39.2,35.2,86,30.11,10.0,Calm,Calm,-,N/A,,Overcast,0,2012-10-07 13:35:00
9:55 AM,40.3,35.8,84,30.11,10.0,West,3.5,-,N/A,,Overcast,280,2012-10-07 13:55:00
10:15 AM,41.0,35.6,81,30.11,10.0,West,4.6,-,N/A,,Overcast,260,2012-10-07 14:15:00
10:35 AM,41.9,35.1,77,30.11,10.0,Calm,Calm,-,N/A,,Overcast,0,2012-10-07 14:35:00
10:55 AM,43.0,34.5,72,30.11,10.0,Calm,Calm,-,N/A,,Overcast,0,2012-10-07 14:55:00
11:15 AM,43.7,33.1,66,30.11,10.0,WSW,3.5,-,N/A,,Overcast,250,2012-10-07 15:15:00
11:35 AM,43.7,32.7,65,30.11,10.0,SW,3.5,-,N/A,,Overcast,230,2012-10-07 15:35:00
11:55 AM,44.6,32.7,63,30.11,10.0,Calm,Calm,-,N/A,,Overcast,0,2012-10-07 15:55:00
12:15 PM,46.2,32.5,59,30.10,10.0,West,6.9,-,N/A,,Overcast,260,2012-10-07 16:15:00
12:36 PM,45.7,33.1,61,30.10,10.0,SW,8.1,-,N/A,,Overcast,220,2012-10-07 16:36:00
1:15 PM,47.3,32.2,56,30.09,10.0,WSW,4.6,-,N/A,,Overcast,240,2012-10-07 17:15:00
1:36 PM,46.6,32.2,57,30.09,10.0,South,4.6,-,N/A,,Overcast,180,2012-10-07 17:36:00
1:55 PM,47.3,32.0,55,30.09,10.0,SW,4.6,-,N/A,,Overcast,220,2012-10-07 17:55:00
2:15 PM,46.2,32.0,58,30.08,10.0,WSW,3.5,-,N/A,,Overcast,250,2012-10-07 18:15:00
2:35 PM,46.4,32.7,59,30.07,10.0,SSW,5.8,-,N/A,Rain,Light Rain,210,2012-10-07 18:35:00
2:55 PM,46.4,32.5,59,30.07,10.0,SW,3.5,-,N/A,,Overcast,220,2012-10-07 18:55:00
3:15 PM,44.1,36.1,74,30.08,10.0,WSW,9.2,-,N/A,Rain,Rain,240,2012-10-07 19:15:00
3:35 PM,42.1,38.1,86,30.08,3.0,Calm,Calm,-,0.02,Rain,Rain,0,2012-10-07 19:35:00
3:55 PM,43.9,37.0,77,30.07,10.0,Calm,Calm,-,0.02,,Light Drizzle,0,2012-10-07 19:55:00
4:15 PM,44.8,37.4,75,30.07,10.0,Calm,Calm,-,N/A,,Mostly Cloudy,0,2012-10-07 20:15:00
4:35 PM,45.0,37.6,75,30.07,10.0,WSW,3.5,-,N/A,,Overcast,250,2012-10-07 20:35:00
4:55 PM,45.5,36.7,71,30.06,10.0,WSW,6.9,-,N/A,,Overcast,250,2012-10-07 20:55:00
5:15 PM,45.1,36.3,71,30.06,10.0,WSW,5.8,-,N/A,,Mostly Cloudy,250,2012-10-07 21:15:00
5:35 PM,45.7,35.1,66,30.06,10.0,WSW,6.9,-,N/A,,Scattered Clouds,250,2012-10-07 21:35:00
5:55 PM,45.1,34.7,67,30.07,10.0,West,6.9,-,N/A,,Scattered Clouds,270,2012-10-07 21:55:00
6:15 PM,45.7,35.2,67,30.07,10.0,West,3.5,-,N/A,,Overcast,280,2012-10-07 22:15:00
6:35 PM,45.3,34.2,65,30.07,10.0,WSW,5.8,-,N/A,,Overcast,250,2012-10-07 22:35:00
6:55 PM,43.3,33.4,68,30.07,10.0,WSW,4.6,-,N/A,,Mostly Cloudy,250,2012-10-07 22:55:00
7:15 PM,42.1,33.3,71,30.07,10.0,WSW,3.5,-,N/A,,Scattered Clouds,240,2012-10-07 23:15:00
7:35 PM,41.0,32.9,73,30.08,10.0,WSW,3.5,-,N/A,,Clear,250,2012-10-07 23:35:00
7:55 PM,40.1,32.5,74,30.08,10.0,WSW,3.5,-,N/A,,Mostly Cloudy,250,2012-10-07 23:55:00
8:15 PM,39.2,32.0,75,30.09,10.0,WSW,4.6,-,N/A,,Scattered Clouds,240,2012-10-08 00:15:00
8:35 PM,39.7,32.0,74,30.09,10.0,SW,3.5,-,N/A,,Scattered Clouds,230,2012-10-08 00:35:00
8:55 PM,39.9,32.9,76,30.09,10.0,Calm,Calm,-,N/A,,Overcast,0,2012-10-08 00:55:00
9:16 PM,40.3,32.9,75,30.09,10.0,West,5.8,-,N/A,,Overcast,260,2012-10-08 01:16:00
9:35 PM,40.5,32.0,72,30.09,10.0,West,3.5,-,N/A,,Overcast,260,2012-10-08 01:35:00
9:55 PM,39.2,31.8,75,30.10,10.0,WSW,4.6,-,N/A,,Mostly Cloudy,250,2012-10-08 01:55:00
10:16 PM,38.7,31.6,76,30.10,10.0,Calm,Calm,-,N/A,,Scattered Clouds,0,2012-10-08 02:16:00
10:35 PM,36.9,32.0,83,30.10,10.0,SW,3.5,-,N/A,,Scattered Clouds,230,2012-10-08 02:35:00
10:55 PM,37.2,30.9,78,30.11,10.0,WSW,3.5,-,N/A,,Scattered Clouds,240,2012-10-08 02:55:00
11:16 PM,35.6,29.8,80,30.11,10.0,SW,4.6,-,N/A,,Clear,230,2012-10-08 03:16:00
11:35 PM,35.8,29.7,78,30.11,10.0,WSW,4.6,-,N/A,,Clear,240,2012-10-08 03:35:00
11:55 PM,35.1,29.5,80,30.11,10.0,WSW,3.5,-,N/A,,Clear,240,2012-10-08 03:55:00